K0CPM-2 Weather Reports


Display with metric or nautical units.
time (UTC)temp
F
wind
direction
speed
MPH
gust
MPH
rain 1hr
in
rain 24hr
in
rain mn
in
humidity
%
barometer
mb
20260507061538 77 356 1.0 4.0 0.00 0.01 0.00 93 1008.7
20260507060037 78 274 1.0 4.0 0.00 0.01 0.00 93 1008.7
20260507054536 77 37 1.0 6.0 0.00 0.01 0.00 93 1008.8
20260507053032 77 23 2.0 7.0 0.00 0.01 0.00 93 1008.9
20260507051530 78 105 2.0 7.0 0.00 0.01 0.00 93 1008.7
20260507050036 77 77 2.0 6.0 0.00 0.01 0.00 93 1008.7
20260507044527 78 32 3.0 8.0 0.00 0.01 0.01 93 1008.7
20260507043026 77 337 1.0 7.0 0.00 0.01 0.01 93 1008.7
20260507041539 78 103 2.0 6.0 0.00 0.01 0.01 93 1008.7
20260507040024 78 333 2.0 5.0 0.00 0.01 0.01 93 1008.8
20260507034526 78 120 0.0 3.0 0.00 0.01 0.01 93 1008.9
20260507033024 78 11 0.0 5.0 0.00 0.01 0.01 93 1008.7
20260507031523 78 20 0.0 3.0 0.00 0.01 0.01 93 1008.9
20260507030023 78 13 0.0 4.0 0.00 0.01 0.01 93 1008.9
20260507024522 78 139 0.0 3.0 0.00 0.01 0.01 93 1009.0
20260507023021 78 47 1.0 5.0 0.00 0.01 0.01 93 1009.1
20260507021521 78 55 0.0 5.0 0.00 0.01 0.01 93 1008.9
20260507020026 78 319 0.0 5.0 0.00 0.01 0.01 93 1008.6
20260507014530 78 25 0.0 5.0 0.00 0.01 0.01 93 1008.4
20260507013035 78 311 0.0 2.0 0.00 0.01 0.01 92 1008.4
20260507011532 78 153 0.0 4.0 0.00 0.01 0.01 92 1008.4
20260507010018 79 154 0.0 5.0 0.00 0.01 0.01 92 1008.3
20260507004518 79 193 0.0 5.0 0.00 0.01 0.01 91 1008.2
20260507003017 79 127 0.0 3.0 0.00 0.01 0.01 90 1008.1
20260507001517 80 158 0.0 2.0 0.00 0.01 0.01 90 1008.0
20260507000023 80 359 0.0 5.0 0.00 0.01 0.01 89 1007.9
20260506234515 81 127 0.0 4.0 0.00 0.01 0.01 88 1008.1
20260506233017 82 343 0.0 6.0 0.00 0.01 0.01 86 1007.9
20260506231515 82 196 1.0 5.0 0.00 0.01 0.01 85 1007.9
20260506230016 83 311 0.0 6.0 0.00 0.01 0.01 84 1007.8
20260506224512 83 10 1.0 4.0 0.00 0.01 0.01 83 1007.8
20260506223010 84 193 2.0 10.0 0.00 0.01 0.01 82 1008.1
20260506221511 85 156 0.0 5.0 0.00 0.01 0.01 80 1008.1
20260506220009 85 122 2.0 12.0 0.00 0.01 0.01 80 1008.2
20260506214508 85 133 2.0 7.0 0.00 0.01 0.01 79 1008.2
20260506213010 87 194 1.0 7.0 0.00 0.01 0.01 77 1008.4
20260506211505 87 67 1.0 6.0 0.00 0.01 0.01 75 1008.4
20260506210008 86 51 3.0 9.0 0.00 0.01 0.01 77 1008.5
20260506204505 86 331 0.0 9.0 0.00 0.01 0.01 79 1008.6
20260506203001 88 119 0.0 5.0 0.00 0.01 0.01 77 1008.8
20260506201600 87 160 1.0 6.0 0.00 0.01 0.01 77 1009.1
20260506200143 87 19 3.0 7.0 0.00 0.01 0.01 78 1009.3
20260506194609 87 22 0.0 8.0 0.00 0.01 0.01 76 1009.6
20260506193054 86 33 1.0 4.0 0.00 0.01 0.01 78 1009.8
20260506191553 85 201 1.0 5.0 0.00 0.01 0.01 79 1010.1
20260506190052 85 177 2.0 7.0 0.00 0.01 0.01 79 1010.3
20260506184554 84 4 3.0 8.0 0.00 0.01 0.01 81 1010.5
20260506183049 85 91 2.0 7.0 0.00 0.01 0.01 81 1010.6
20260506181548 86 129 0.0 3.0 0.00 0.01 0.01 82 1010.6
20260506180051 85 181 0.0 4.0 0.00 0.01 0.01 84 1010.6
20260506174542 84 319 1.0 6.0 0.00 0.01 0.01 85 1010.9
20260506173037 82 312 0.0 5.0 0.00 0.01 0.01 89 1011.1
20260506171548 81 18 0.0 9.0 0.00 0.01 0.01 90 1011.3
20260506170036 82 129 1.0 6.0 0.00 0.01 0.01 86 1011.4
20260506164536 82 142 2.0 5.0 0.00 0.01 0.01 85 1011.1
20260506163037 82 347 2.0 8.0 0.00 0.01 0.01 84 1011.0
20260506161539 82 318 3.0 10.0 0.00 0.01 0.01 84 1010.7
20260506160029 82 85 2.0 6.0 0.00 0.01 0.01 85 1010.7
20260506154525 82 129 1.0 7.0 0.00 0.01 0.01 87 1010.7
20260506153022 81 183 2.0 6.0 0.00 0.01 0.01 87 1010.6
20260506151520 81 12 1.0 8.0 0.00 0.01 0.01 87 1010.5
20260506150020 80 109 2.0 9.0 0.00 0.01 0.01 88 1010.5
20260506144513 80 12 1.0 5.0 0.00 0.01 0.01 89 1010.5
20260506143011 80 325 2.0 6.0 0.00 0.01 0.01 90 1010.3
20260506141508 79 347 2.0 5.0 0.00 0.01 0.01 90 1010.1
20260506140006 78 45 2.0 5.0 0.00 0.01 0.01 92 1010.0
20260506134510 78 121 1.0 5.0 0.00 0.01 0.01 93 1010.1
20260506133100 77 113 0.0 3.0 0.00 0.01 0.01 94 1010.1
20260506131610 76 92 1.0 4.0 0.00 0.01 0.01 95 1010.0
20260506130056 75 60 1.0 4.0 0.00 0.01 0.01 95 1010.1
20260506124554 75 120 0.0 4.0 0.00 0.01 0.01 96 1010.0
20260506123053 75 118 2.0 4.0 0.00 0.01 0.01 96 1009.8
20260506121552 74 105 0.0 3.0 0.00 0.01 0.01 96 1009.7
20260506120048 74 118 2.0 5.0 0.01 0.01 0.01 96 1009.3
20260506114552 74 113 1.0 4.0 0.01 0.01 0.01 95 1009.3
20260506113048 74 356 0.0 3.0 0.01 0.01 0.01 95 1009.2
20260506111602 74 144 0.0 2.0 0.01 0.01 0.01 95 1009.2
20260506110048 74 108 0.0 5.0 0.00 0.00 0.00 94 1009.1
20260506104546 75 131 1.0 4.0 0.00 0.00 0.00 93 1008.9
20260506103045 75 50 1.0 4.0 0.00 0.00 0.00 92 1008.8
20260506101545 75 98 0.0 3.0 0.00 0.00 0.00 92 1008.7
20260506100043 75 115 0.0 3.0 0.00 0.00 0.00 92 1008.6
20260506094543 75 132 0.0 9.0 0.00 0.00 0.00 92 1008.7
20260506093039 74 101 1.0 3.0 0.00 0.00 0.00 92 1008.5
20260506091541 74 111 1.0 5.0 0.00 0.00 0.00 91 1008.7
20260506090037 74 108 0.0 3.0 0.00 0.00 0.00 91 1008.8
20260506084533 74 110 0.0 2.0 0.00 0.00 0.00 91 1008.8
20260506083028 74 113 0.0 3.0 0.00 0.00 0.00 90 1008.8
20260506081531 74 116 1.0 4.0 0.00 0.00 0.00 90 1008.6
20260506073013 73 85 2.0 5.0 0.00 0.00 0.00 91 1008.7
20260506071510 73 84 1.0 5.0 0.00 0.00 0.00 92 1008.8